Starlink 31845

operational
NORAD ID: 60129 Int'l Des: 2024-118 Owner: SPXS Country: US Constellation: starlink
LEOCIRCULAR

Starlink 31845について

説明を読み込み中...

リアルタイム位置

3D地球を読み込み中...

次回通過

高度履歴

Altitude vs Time

uPlot chart will show altitude changes over time

軌道要素

1 60129U 24118S 25305.58727907 .00000056 00000-0 14025-4 0 9991
2 60129 53.1612 259.5868 0001349 82.1274 277.9880 15.30192519 76114
Epoch: Nov 1, 2025 • Age: 28 hours

現在のステータス

高度 484.2 km
速度 7.62 km/s
衛星直下点 -28.17°S, 83.94°W
打ち上げ日 Jun 24, 2024
運用期間 1.3 years
タイプ internet

技術仕様

分類 Payload
質量 730.00 kg
乾燥質量 700.00 kg
総質量 730.00 kg
長さ 0.30 m
直径 4.10 m
スパン 29.00 m
形状 Box + pan
製造者 SPXS
バスタイプ Starlink V2M
フェーズステータス In Orbit
所有者/国 SPXS/US

大規模コンステレーション

Loading constellations...